| time (UTC) | temp F | wind direction | speed MPH | gust MPH | rain 1hr in | rain 24hr in | rain mn in | humidity % | barometer mb |
| 20260902193032 | 70 | 283 | 2.0 | 0.0 | 0.00 | 0.00 | 0.00 | 40 | 1025.5 |
| 20260902191031 | 68 | 159 | 0.0 | 0.0 | 0.00 | 0.00 | 0.00 | 46 | 1025.6 |
| 20260902190027 | 67 | 260 | 1.0 | 0.0 | 0.00 | 0.00 | 0.00 | 47 | 1025.7 |
| 20260902184027 | 68 | 205 | 2.0 | 0.0 | 0.00 | 0.00 | 0.00 | 43 | 1026.0 |
| 20260902183025 | 70 | 115 | 1.0 | 0.0 | 0.00 | 0.00 | 0.00 | 44 | 1025.9 |
| 20260902182023 | 69 | 189 | 1.0 | 0.0 | 0.00 | 0.00 | 0.00 | 43 | 1026.2 |
| 20260902181020 | 69 | 279 | 1.0 | 0.0 | 0.00 | 0.00 | 0.00 | 44 | 1026.4 |
| 20260902180022 | 69 | 191 | 1.0 | 0.0 | 0.00 | 0.00 | 0.00 | 43 | 1026.5 |
| 20260902175021 | 68 | 307 | 2.0 | 0.0 | 0.00 | 0.00 | 0.00 | 46 | 1026.7 |
| 20260902174021 | 68 | 182 | 1.0 | 0.0 | 0.00 | 0.00 | 0.00 | 47 | 1026.9 |
| 20260902173023 | 68 | 190 | 1.0 | 0.0 | 0.00 | 0.00 | 0.00 | 47 | 1026.8 |
| 20260902172022 | 68 | 163 | 1.0 | 0.0 | 0.00 | 0.00 | 0.00 | 48 | 1026.8 |
| 20260902171020 | 67 | 206 | 1.0 | 0.0 | 0.00 | 0.00 | 0.00 | 48 | 1026.7 |
| 20260902170022 | 67 | 271 | 1.0 | 0.0 | 0.00 | 0.00 | 0.00 | 49 | 1026.7 |
| 20260902164039 | 66 | 226 | 1.0 | 0.0 | 0.00 | 0.00 | 0.00 | 51 | 1027.0 |
| 20260902163018 | 64 | 119 | 3.0 | 0.0 | 0.00 | 0.00 | 0.00 | 55 | 1027.3 |
| 20260902161019 | 59 | 43 | 1.0 | 0.0 | 0.00 | 0.00 | 0.00 | 62 | 1027.5 |
| 20260902160020 | 59 | 80 | 1.0 | 0.0 | 0.00 | 0.00 | 0.00 | 61 | 1027.5 |
| 20260902155022 | 58 | 66 | 0.0 | 0.0 | 0.00 | 0.00 | 0.00 | 64 | 1027.5 |
| 20260902153019 | 57 | 32 | 0.0 | 0.0 | 0.00 | 0.00 | 0.00 | 67 | 1027.5 |
| 20260902152040 | 56 | 33 | 0.0 | 0.0 | 0.00 | 0.00 | 0.00 | 67 | 1027.7 |
| 20260902151037 | 55 | 29 | 0.0 | 0.0 | 0.00 | 0.00 | 0.00 | 68 | 1027.8 |
| 20260902150019 | 55 | 355 | 0.0 | 0.0 | 0.00 | 0.00 | 0.00 | 71 | 1027.9 |
| 20260902145022 | 55 | 329 | 0.0 | 0.0 | 0.00 | 0.00 | 0.00 | 70 | 1028.0 |
| 20260902144021 | 55 | 321 | 0.0 | 0.0 | 0.00 | 0.00 | 0.00 | 69 | 1027.3 |
| 20260902143020 | 55 | 319 | 0.0 | 0.0 | 0.00 | 0.00 | 0.00 | 68 | 1027.4 |
| 20260902142023 | 55 | 309 | 0.0 | 0.0 | 0.00 | 0.00 | 0.00 | 65 | 1027.4 |
| 20260902140039 | 54 | 309 | 0.0 | 0.0 | 0.00 | 0.00 | 0.00 | 69 | 1027.8 |
| 20260902133040 | 49 | 304 | 0.0 | 0.0 | 0.00 | 0.00 | 0.00 | 78 | 1027.5 |
| 20260902132020 | 47 | 305 | 0.0 | 0.0 | 0.00 | 0.00 | 0.00 | 79 | 1027.4 |
| 20260902131024 | 47 | 305 | 0.0 | 0.0 | 0.00 | 0.00 | 0.00 | 81 | 1027.4 |
| 20260902130021 | 46 | 305 | 0.0 | 0.0 | 0.00 | 0.00 | 0.00 | 80 | 1027.4 |
| 20260902125019 | 46 | 305 | 0.0 | 0.0 | 0.00 | 0.00 | 0.00 | 79 | 1027.2 |
| 20260902124024 | 47 | 305 | 0.0 | 0.0 | 0.00 | 0.00 | 0.00 | 75 | 1027.3 |
| 20260902123022 | 48 | 305 | 0.0 | 0.0 | 0.00 | 0.00 | 0.00 | 72 | 1027.2 |
| 20260902122020 | 49 | 305 | 0.0 | 0.0 | 0.00 | 0.00 | 0.00 | 72 | 1027.1 |
| 20260902121018 | 49 | 305 | 0.0 | 0.0 | 0.00 | 0.00 | 0.00 | 71 | 1026.9 |
| 20260902120021 | 49 | 305 | 0.0 | 0.0 | 0.00 | 0.00 | 0.00 | 71 | 1026.8 |
| 20260902114039 | 48 | 306 | 0.0 | 0.0 | 0.00 | 0.00 | 0.00 | 73 | 1026.7 |
| 20260902113035 | 48 | 306 | 0.0 | 0.0 | 0.00 | 0.00 | 0.00 | 76 | 1026.6 |
| 20260902112035 | 48 | 306 | 0.0 | 0.0 | 0.00 | 0.00 | 0.00 | 73 | 1026.5 |
| 20260902111018 | 48 | 306 | 0.0 | 0.0 | 0.00 | 0.00 | 0.00 | 75 | 1026.5 |
| 20260902105037 | 48 | 306 | 0.0 | 0.0 | 0.00 | 0.00 | 0.00 | 76 | 1026.7 |
| 20260902104038 | 47 | 306 | 0.0 | 0.0 | 0.00 | 0.00 | 0.00 | 78 | 1026.7 |
| 20260902103035 | 46 | 306 | 0.0 | 0.0 | 0.00 | 0.00 | 0.00 | 79 | 1026.7 |
| 20260902102036 | 46 | 306 | 0.0 | 0.0 | 0.00 | 0.00 | 0.00 | 80 | 1026.5 |
| 20260902100029 | 45 | 306 | 0.0 | 0.0 | 0.00 | 0.00 | 0.00 | 81 | 1026.7 |
| 20260902094027 | 46 | 306 | 0.0 | 0.0 | 0.00 | 0.00 | 0.00 | 80 | 1026.8 |
| 20260902093028 | 46 | 306 | 0.0 | 0.0 | 0.00 | 0.00 | 0.00 | 79 | 1026.8 |
| 20260902091027 | 46 | 306 | 0.0 | 0.0 | 0.00 | 0.00 | 0.00 | 79 | 1026.9 |
| 20260902085021 | 47 | 306 | 0.0 | 0.0 | 0.00 | 0.00 | 0.00 | 79 | 1027.0 |
| 20260902084038 | 47 | 306 | 0.0 | 0.0 | 0.00 | 0.00 | 0.00 | 79 | 1027.1 |
| 20260902083020 | 46 | 306 | 0.0 | 0.0 | 0.00 | 0.00 | 0.00 | 80 | 1027.2 |
| 20260902082037 | 46 | 306 | 0.0 | 0.0 | 0.00 | 0.00 | 0.00 | 79 | 1027.2 |
| 20260902081032 | 46 | 306 | 0.0 | 0.0 | 0.00 | 0.00 | 0.00 | 79 | 1027.2 |
| 20260902080033 | 46 | 306 | 2.0 | 0.0 | 0.00 | 0.00 | 0.00 | 78 | 1027.2 |
| 20260902074040 | 48 | 306 | 0.0 | 0.0 | 0.00 | 0.00 | 0.00 | 75 | 1027.0 |
| 20260902073016 | 48 | 306 | 0.0 | 0.0 | 0.00 | 0.00 | 0.00 | 75 | 1026.9 |
| 20260902071035 | 49 | 306 | 0.0 | 0.0 | 0.00 | 0.00 | 0.00 | 74 | 1026.9 |
| 20260902064037 | 49 | 306 | 0.0 | 0.0 | 0.00 | 0.00 | 0.00 | 75 | 1026.6 |
| 20260902063032 | 49 | 306 | 0.0 | 0.0 | 0.00 | 0.00 | 0.00 | 76 | 1026.3 |
| 20260902062028 | 48 | 306 | 0.0 | 0.0 | 0.00 | 0.00 | 0.00 | 77 | 1026.4 |
| 20260902061030 | 47 | 306 | 0.0 | 0.0 | 0.00 | 0.00 | 0.00 | 77 | 1026.2 |
| 20260902060028 | 48 | 306 | 0.0 | 0.0 | 0.00 | 0.00 | 0.00 | 76 | 1026.2 |
| 20260902055025 | 48 | 306 | 0.0 | 0.0 | 0.00 | 0.00 | 0.01 | 76 | 1026.2 |
| 20260902053023 | 47 | 306 | 0.0 | 0.0 | 0.00 | 0.00 | 0.01 | 77 | 1026.2 |
| 20260902052025 | 47 | 306 | 0.0 | 0.0 | 0.00 | 0.00 | 0.01 | 77 | 1026.9 |
| 20260902051022 | 48 | 306 | 0.0 | 0.0 | 0.00 | 0.00 | 0.01 | 75 | 1026.8 |
| 20260902050018 | 49 | 306 | 0.0 | 0.0 | 0.00 | 0.00 | 0.01 | 72 | 1026.8 |
| 20260902045017 | 49 | 306 | 0.0 | 0.0 | 0.00 | 0.00 | 0.01 | 72 | 1026.8 |
| 20260902044017 | 50 | 306 | 0.0 | 0.0 | 0.00 | 0.00 | 0.01 | 71 | 1026.9 |
| 20260902043022 | 50 | 306 | 0.0 | 0.0 | 0.00 | 0.00 | 0.01 | 70 | 1027.0 |
| 20260902042041 | 51 | 306 | 0.0 | 0.0 | 0.00 | 0.00 | 0.01 | 69 | 1027.0 |
| 20260902041037 | 51 | 306 | 0.0 | 0.0 | 0.00 | 0.00 | 0.01 | 68 | 1027.0 |
| 20260902035033 | 52 | 306 | 0.0 | 0.0 | 0.00 | 0.00 | 0.01 | 68 | 1027.0 |
| 20260902034034 | 52 | 306 | 0.0 | 0.0 | 0.00 | 0.00 | 0.01 | 68 | 1026.8 |
| 20260902033031 | 53 | 306 | 0.0 | 0.0 | 0.00 | 0.00 | 0.01 | 67 | 1026.7 |
| 20260902032028 | 54 | 306 | 0.0 | 0.0 | 0.00 | 0.00 | 0.01 | 66 | 1026.5 |
| 20260902031025 | 54 | 306 | 0.0 | 0.0 | 0.00 | 0.00 | 0.01 | 68 | 1026.6 |
| 20260902030028 | 53 | 306 | 0.0 | 0.0 | 0.00 | 0.00 | 0.01 | 71 | 1026.5 |
| 20260902024025 | 55 | 306 | 0.0 | 0.0 | 0.00 | 0.00 | 0.01 | 72 | 1026.2 |
| 20260902023040 | 54 | 306 | 0.0 | 0.0 | 0.00 | 0.00 | 0.01 | 73 | 1026.2 |
| 20260902022038 | 54 | 306 | 0.0 | 0.0 | 0.00 | 0.00 | 0.01 | 75 | 1025.9 |
| 20260902021039 | 54 | 306 | 0.0 | 0.0 | 0.00 | 0.00 | 0.01 | 75 | 1025.8 |
| 20260902020032 | 55 | 306 | 0.0 | 0.0 | 0.00 | 0.00 | 0.01 | 76 | 1025.7 |
| 20260902015030 | 55 | 306 | 0.0 | 0.0 | 0.00 | 0.00 | 0.01 | 73 | 1025.7 |
| 20260902014026 | 56 | 306 | 0.0 | 0.0 | 0.00 | 0.00 | 0.01 | 70 | 1025.6 |
| 20260902013027 | 58 | 306 | 0.0 | 0.0 | 0.00 | 0.00 | 0.01 | 67 | 1025.5 |
| 20260902012043 | 59 | 306 | 0.0 | 0.0 | 0.00 | 0.00 | 0.01 | 65 | 1025.5 |
| 20260902011038 | 61 | 306 | 0.0 | 0.0 | 0.00 | 0.00 | 0.01 | 62 | 1025.7 |
| 20260902005036 | 63 | 306 | 0.0 | 0.0 | 0.00 | 0.00 | 0.01 | 56 | 1026.0 |
| 20260902004037 | 64 | 306 | 0.0 | 0.0 | 0.00 | 0.00 | 0.01 | 53 | 1026.0 |
| 20260902003033 | 64 | 321 | 0.0 | 0.0 | 0.00 | 0.00 | 0.01 | 48 | 1026.2 |
| 20260902002031 | 64 | 54 | 0.0 | 0.0 | 0.00 | 0.00 | 0.01 | 48 | 1026.0 |
| 20260902000034 | 66 | 98 | 0.0 | 0.0 | 0.00 | 0.00 | 0.01 | 46 | 1025.4 |
| 20260901235035 | 66 | 126 | 0.0 | 0.0 | 0.00 | 0.00 | 0.01 | 45 | 1025.3 |
| 20260901234031 | 66 | 166 | 1.0 | 0.0 | 0.00 | 0.00 | 0.01 | 43 | 1025.5 |
| 20260901232030 | 66 | 98 | 1.0 | 0.0 | 0.00 | 0.00 | 0.01 | 43 | 1026.3 |
| 20260901231026 | 64 | 96 | 3.0 | 0.0 | 0.00 | 0.00 | 0.01 | 58 | 1026.5 |
| 20260901230030 | 64 | 109 | 1.0 | 0.0 | 0.00 | 0.00 | 0.01 | 60 | 1026.3 |
| 20260901225025 | 64 | 108 | 2.0 | 0.0 | 0.00 | 0.00 | 0.01 | 61 | 1026.5 |
| 20260901224025 | 64 | 90 | 4.0 | 0.0 | 0.00 | 0.00 | 0.01 | 61 | 1026.6 |
| 20260901223023 | 64 | 88 | 3.0 | 0.0 | 0.00 | 0.00 | 0.01 | 62 | 1026.4 |
| 20260901222026 | 63 | 115 | 4.0 | 0.0 | 0.00 | 0.00 | 0.01 | 65 | 1026.6 |
| 20260901221024 | 62 | 59 | 1.0 | 0.0 | 0.00 | 0.00 | 0.01 | 68 | 1026.5 |
| 20260901220023 | 63 | 317 | 1.0 | 0.0 | 0.00 | 0.00 | 0.01 | 64 | 1026.9 |
| 20260901215038 | 65 | 66 | 1.0 | 0.0 | 0.00 | 0.00 | 0.01 | 62 | 1026.6 |
| 20260901213036 | 65 | 200 | 0.0 | 0.0 | 0.00 | 0.00 | 0.01 | 55 | 1026.8 |
| 20260901211035 | 63 | 280 | 0.0 | 0.0 | 0.00 | 0.00 | 0.01 | 59 | 1027.0 |
| 20260901210031 | 64 | 265 | 2.0 | 0.0 | 0.00 | 0.00 | 0.01 | 56 | 1026.3 |
| 20260901205030 | 69 | 140 | 1.0 | 0.0 | 0.00 | 0.00 | 0.01 | 48 | 1026.2 |
| 20260901204031 | 68 | 145 | 1.0 | 0.0 | 0.00 | 0.00 | 0.01 | 47 | 1026.4 |
| 20260901203029 | 67 | 135 | 0.0 | 0.0 | 0.00 | 0.00 | 0.01 | 50 | 1026.3 |
| 20260901201026 | 66 | 207 | 1.0 | 0.0 | 0.00 | 0.00 | 0.01 | 51 | 1026.5 |
| 20260901200026 | 65 | 241 | 0.0 | 0.0 | 0.00 | 0.00 | 0.01 | 55 | 1026.5 |
| 20260901195024 | 64 | 161 | 0.0 | 0.0 | 0.00 | 0.00 | 0.01 | 55 | 1026.5 |
| 20260901194022 | 64 | 166 | 1.0 | 0.0 | 0.00 | 0.00 | 0.01 | 54 | 1026.5 |